Time,TemperatureF,DewpointF,PressureIn,WindDirection,WindDirectionDegrees,WindSpeedMPH,WindSpeedGustMPH,Humidity,HourlyPrecipIn,Conditions,Clouds,dailyrainin,SoftwareType,DateUTC
2013-02-18 06:57:00,2.2,-4.2,30.26,WNW,293,1.0,1.0,74,0.00,,,0.00,Wunderground v.1.15,2013-02-18 11:57:00,
2013-02-18 06:58:00,2.2,-4.2,30.26,SW,235,2.0,2.0,74,0.00,,,0.00,Wunderground v.1.15,2013-02-18 11:58:00,
2013-02-18 06:59:00,2.2,-4.2,30.27,SSW,205,2.0,2.0,74,0.00,,,0.00,Wunderground v.1.15,2013-02-18 11:59:00,
2013-02-18 07:04:00,2.3,-4.1,30.27,ESE,116,3.0,14.0,74,0.00,,,0.00,Wunderground v.1.15,2013-02-18 12:04:00,
2013-02-18 07:09:00,2.3,-4.4,30.27,NNE,20,3.0,14.0,73,0.00,,,0.00,Wunderground v.1.15,2013-02-18 12:09:00,
2013-02-18 07:15:00,2.4,-4.3,30.27,SW,235,3.0,5.0,73,0.00,,,0.00,Wunderground v.1.15,2013-02-18 12:15:00,
2013-02-18 07:20:00,2.4,-4.3,30.28,WSW,248,3.0,3.0,73,0.00,,,0.00,Wunderground v.1.15,2013-02-18 12:20:00,
2013-02-18 07:26:00,2.6,-4.1,30.28,ESE,122,3.0,7.0,73,0.00,,,0.00,Wunderground v.1.15,2013-02-18 12:26:00,
2013-02-18 07:31:00,2.8,-3.9,30.28,WNW,288,3.0,8.0,73,0.00,,,0.00,Wunderground v.1.15,2013-02-18 12:31:00,
2013-02-18 07:36:00,3.0,-4.0,30.29,SSW,200,3.0,8.0,72,0.00,,,0.00,Wunderground v.1.15,2013-02-18 12:36:00,
2013-02-18 07:41:00,3.3,-4.0,30.29,West,280,4.0,4.0,71,0.00,,,0.00,Wunderground v.1.15,2013-02-18 12:41:00,
2013-02-18 07:47:00,3.7,-3.6,30.30,SW,230,2.0,4.0,71,0.00,,,0.00,Wunderground v.1.15,2013-02-18 12:47:00,
2013-02-18 07:52:00,3.9,-3.7,30.30,NW,312,2.0,2.0,70,0.00,,,0.00,Wunderground v.1.15,2013-02-18 12:52:00,
2013-02-18 07:57:00,4.0,-3.6,30.30,North,356,3.0,4.0,70,0.00,,,0.00,Wunderground v.1.15,2013-02-18 12:57:00,
2013-02-18 08:02:00,4.3,-3.3,30.30,SW,221,3.0,11.0,70,0.00,,,0.00,Wunderground v.1.15,2013-02-18 13:02:00,
2013-02-18 08:08:00,4.7,-2.9,30.30,NNW,330,2.0,11.0,70,0.00,,,0.00,Wunderground v.1.15,2013-02-18 13:08:00,
2013-02-18 08:13:00,5.0,-2.7,30.30,NE,44,2.0,5.0,70,0.00,,,0.00,Wunderground v.1.15,2013-02-18 13:13:00,
2013-02-18 08:19:00,5.3,-2.7,30.31,NNE,25,3.0,6.0,69,0.00,,,0.00,Wunderground v.1.15,2013-02-18 13:19:00,
2013-02-18 08:24:00,5.6,-2.7,30.31,NNE,27,3.0,6.0,68,0.00,,,0.00,Wunderground v.1.15,2013-02-18 13:24:00,
2013-02-18 08:29:00,5.8,-2.5,30.31,WNW,288,4.0,8.0,68,0.00,,,0.00,Wunderground v.1.15,2013-02-18 13:29:00,
2013-02-18 08:34:00,6.1,-2.2,30.31,NE,54,4.0,6.0,68,0.00,,,0.00,Wunderground v.1.15,2013-02-18 13:34:00,
2013-02-18 08:40:00,6.5,-2.1,30.31,ENE,74,4.0,4.0,67,0.00,,,0.00,Wunderground v.1.15,2013-02-18 13:40:00,
2013-02-18 08:46:00,7.0,-1.7,30.32,South,179,3.0,8.0,67,0.00,,,0.00,Wunderground v.1.15,2013-02-18 13:46:00,
2013-02-18 08:51:00,7.3,-1.7,30.32,West,266,2.0,4.0,66,0.00,,,0.00,Wunderground v.1.15,2013-02-18 13:51:00,
2013-02-18 08:56:00,7.4,-1.9,30.32,WSW,246,3.0,5.0,65,0.00,,,0.00,Wunderground v.1.15,2013-02-18 13:56:00,
2013-02-18 09:02:00,7.9,-1.4,30.32,NNE,23,2.0,4.0,65,0.00,,,0.00,Wunderground v.1.15,2013-02-18 14:02:00,
2013-02-18 09:07:00,8.2,-1.5,30.32,North,1,2.0,4.0,64,0.00,,,0.00,Wunderground v.1.15,2013-02-18 14:07:00,
2013-02-18 09:12:00,8.6,-1.4,30.33,NW,313,2.0,3.0,63,0.00,,,0.00,Wunderground v.1.15,2013-02-18 14:12:00,
2013-02-18 09:18:00,9.2,-1.2,30.33,ESE,107,2.0,3.0,62,0.00,,,0.00,Wunderground v.1.15,2013-02-18 14:18:00,
2013-02-18 09:23:00,9.3,-1.4,30.33,ENE,60,1.0,4.0,61,0.00,,,0.00,Wunderground v.1.15,2013-02-18 14:23:00,
2013-02-18 09:29:00,9.1,-1.6,30.33,SE,144,1.0,4.0,61,0.00,,,0.00,Wunderground v.1.15,2013-02-18 14:29:00,
2013-02-18 09:34:00,9.4,-1.4,30.33,SW,224,1.0,1.0,61,0.00,,,0.00,Wunderground v.1.15,2013-02-18 14:34:00,
2013-02-18 09:39:00,9.1,-1.3,30.33,East,94,2.0,7.0,62,0.00,,,0.00,Wunderground v.1.15,2013-02-18 14:39:00,
2013-02-18 09:45:00,9.2,-1.2,30.33,ENE,76,3.0,6.0,62,0.00,,,0.00,Wunderground v.1.15,2013-02-18 14:45:00,
2013-02-18 09:50:00,9.8,-1.0,30.33,NW,315,3.0,3.0,61,0.00,,,0.00,Wunderground v.1.15,2013-02-18 14:50:00,
2013-02-18 09:55:00,10.3,-0.5,30.34,SW,236,2.0,3.0,61,0.00,,,0.00,Wunderground v.1.15,2013-02-18 14:55:00,
2013-02-18 10:00:00,10.7,-0.5,30.34,ENE,60,2.0,3.0,60,0.00,,,0.00,Wunderground v.1.15,2013-02-18 15:00:00,
2013-02-18 10:05:00,11.1,-0.5,30.34,ENE,60,2.0,14.0,59,0.00,,,0.00,Wunderground v.1.15,2013-02-18 15:05:00,
2013-02-18 10:10:00,11.2,-0.4,30.34,South,188,2.0,3.0,59,0.00,,,0.00,Wunderground v.1.15,2013-02-18 15:10:00,
2013-02-18 10:16:00,11.6,0.0,30.34,NW,307,2.0,4.0,59,0.00,,,0.00,Wunderground v.1.15,2013-02-18 15:16:00,
2013-02-18 10:21:00,11.8,0.2,30.34,SW,214,2.0,2.0,59,0.00,,,0.00,Wunderground v.1.15,2013-02-18 15:21:00,
2013-02-18 10:26:00,12.3,-0.1,30.34,SE,138,2.0,7.0,57,0.00,,,0.00,Wunderground v.1.15,2013-02-18 15:26:00,
2013-02-18 10:31:00,12.8,0.4,30.34,SSE,163,3.0,6.0,57,0.00,,,0.00,Wunderground v.1.15,2013-02-18 15:31:00,
2013-02-18 10:36:00,12.9,0.1,30.34,WNW,289,3.0,7.0,56,0.00,,,0.00,Wunderground v.1.15,2013-02-18 15:36:00,
2013-02-18 10:41:00,13.2,0.8,30.34,ESE,109,3.0,3.0,57,0.00,,,0.00,Wunderground v.1.15,2013-02-18 15:41:00,
2013-02-18 10:47:00,13.7,0.5,30.34,ENE,63,2.0,4.0,55,0.00,,,0.00,Wunderground v.1.15,2013-02-18 15:47:00,
2013-02-18 10:52:00,14.2,1.7,30.34,South,176,2.0,11.0,57,0.00,,,0.00,Wunderground v.1.15,2013-02-18 15:52:00,
2013-02-18 10:57:00,14.4,0.8,30.34,ENE,60,3.0,11.0,54,0.00,,,0.00,Wunderground v.1.15,2013-02-18 15:57:00,
2013-02-18 11:02:00,14.5,1.2,30.35,North,356,4.0,10.0,55,0.00,,,0.00,Wunderground v.1.15,2013-02-18 16:02:00,
2013-02-18 11:08:00,14.7,1.4,30.34,East,91,3.0,10.0,55,0.00,,,0.00,Wunderground v.1.15,2013-02-18 16:08:00,
2013-02-18 11:13:00,15.3,1.6,30.34,NNE,19,3.0,4.0,54,0.00,,,0.00,Wunderground v.1.15,2013-02-18 16:13:00,
2013-02-18 11:18:00,15.6,1.5,30.33,NNE,26,3.0,9.0,53,0.00,,,0.00,Wunderground v.1.15,2013-02-18 16:18:00,
2013-02-18 11:23:00,15.8,0.8,30.34,SW,225,3.0,6.0,51,0.00,,,0.00,Wunderground v.1.15,2013-02-18 16:23:00,
2013-02-18 11:29:00,16.0,1.0,30.34,NE,34,3.0,6.0,51,0.00,,,0.00,Wunderground v.1.15,2013-02-18 16:29:00,
2013-02-18 11:35:00,16.6,1.6,30.34,NW,321,2.0,6.0,51,0.00,,,0.00,Wunderground v.1.15,2013-02-18 16:35:00,
2013-02-18 11:40:00,16.9,1.9,30.34,SSE,159,2.0,2.0,51,0.00,,,0.00,Wunderground v.1.15,2013-02-18 16:40:00,
2013-02-18 11:45:00,17.1,2.1,30.33,WNW,290,3.0,7.0,51,0.00,,,0.00,Wunderground v.1.15,2013-02-18 16:45:00,
2013-02-18 11:50:00,17.5,2.4,30.33,WSW,244,3.0,3.0,51,0.00,,,0.00,Wunderground v.1.15,2013-02-18 16:50:00,
2013-02-18 11:55:00,18.1,2.6,30.33,WNW,300,3.0,4.0,50,0.00,,,0.00,Wunderground v.1.15,2013-02-18 16:55:00,
2013-02-18 12:01:00,18.6,3.0,30.33,WNW,289,3.0,17.0,50,0.00,,,0.00,Wunderground v.1.15,2013-02-18 17:01:00,
2013-02-18 12:07:00,18.2,1.8,30.33,WNW,287,3.0,17.0,48,0.00,,,0.00,Wunderground v.1.15,2013-02-18 17:07:00,
2013-02-18 12:12:00,18.7,2.2,30.33,NE,46,4.0,6.0,48,0.00,,,0.00,Wunderground v.1.15,2013-02-18 17:12:00,
2013-02-18 12:17:00,18.9,2.0,30.33,WSW,253,3.0,6.0,47,0.00,,,0.00,Wunderground v.1.15,2013-02-18 17:17:00,
2013-02-18 12:22:00,19.0,1.6,30.33,West,278,4.0,6.0,46,0.00,,,0.00,Wunderground v.1.15,2013-02-18 17:22:00,
2013-02-18 12:28:00,18.8,1.4,30.33,SE,136,4.0,12.0,46,0.00,,,0.00,Wunderground v.1.15,2013-02-18 17:28:00,
2013-02-18 12:33:00,19.3,1.9,30.33,WSW,240,4.0,4.0,46,0.00,,,0.00,Wunderground v.1.15,2013-02-18 17:33:00,
2013-02-18 12:39:00,19.4,1.0,30.33,SW,225,3.0,5.0,44,0.00,,,0.00,Wunderground v.1.15,2013-02-18 17:39:00,
2013-02-18 12:44:00,19.2,0.8,30.33,WSW,240,4.0,13.0,44,0.00,,,0.00,Wunderground v.1.15,2013-02-18 17:44:00,
2013-02-18 12:49:00,19.1,0.2,30.33,West,277,5.0,13.0,43,0.00,,,0.00,Wunderground v.1.15,2013-02-18 17:49:00,
2013-02-18 12:55:00,19.3,-1.1,30.32,South,173,3.0,6.0,40,0.00,,,0.00,Wunderground v.1.15,2013-02-18 17:55:00,
2013-02-18 13:00:00,19.4,-0.5,30.33,SSW,203,4.0,5.0,41,0.00,,,0.00,Wunderground v.1.15,2013-02-18 18:00:00,
2013-02-18 13:06:00,19.7,-1.3,30.33,SW,229,4.0,15.0,39,0.00,,,0.00,Wunderground v.1.15,2013-02-18 18:06:00,
2013-02-18 13:11:00,20.1,-0.9,30.32,South,184,4.0,5.0,39,0.00,,,0.00,Wunderground v.1.15,2013-02-18 18:11:00,
2013-02-18 13:16:00,20.3,-1.9,30.32,WNW,291,4.0,6.0,37,0.00,,,0.00,Wunderground v.1.15,2013-02-18 18:16:00,
2013-02-18 13:21:00,20.4,-2.4,30.32,ENE,64,4.0,9.0,36,0.00,,,0.00,Wunderground v.1.15,2013-02-18 18:21:00,
2013-02-18 13:26:00,20.6,-2.2,30.32,WSW,248,4.0,9.0,36,0.00,,,0.00,Wunderground v.1.15,2013-02-18 18:26:00,
2013-02-18 13:31:00,21.0,-1.8,30.33,SW,225,3.0,3.0,36,0.00,,,0.00,Wunderground v.1.15,2013-02-18 18:31:00,
2013-02-18 13:37:00,20.7,-3.3,30.33,NW,307,4.0,5.0,34,0.00,,,0.00,Wunderground v.1.15,2013-02-18 18:37:00,
2013-02-18 13:42:00,20.8,-2.0,30.33,NE,54,4.0,6.0,36,0.00,,,0.00,Wunderground v.1.15,2013-02-18 18:42:00,
2013-02-18 13:48:00,20.9,-3.1,30.33,WNW,290,3.0,7.0,34,0.00,,,0.00,Wunderground v.1.15,2013-02-18 18:48:00,
2013-02-18 13:53:00,20.8,-2.6,30.33,North,4,4.0,9.0,35,0.00,,,0.00,Wunderground v.1.15,2013-02-18 18:53:00,
2013-02-18 13:59:00,21.2,-1.1,30.34,WSW,245,3.0,9.0,37,0.00,,,0.00,Wunderground v.1.15,2013-02-18 18:59:00,
2013-02-18 14:04:00,21.1,-4.2,30.34,WNW,298,3.0,16.0,32,0.00,,,0.00,Wunderground v.1.15,2013-02-18 19:04:00,
2013-02-18 14:09:00,21.3,-2.8,30.34,ENE,58,4.0,16.0,34,0.00,,,0.00,Wunderground v.1.15,2013-02-18 19:09:00,
2013-02-18 14:15:00,22.0,-2.1,30.34,NW,317,3.0,10.0,34,0.00,,,0.00,Wunderground v.1.15,2013-02-18 19:15:00,
2013-02-18 14:20:00,21.9,-2.9,30.34,WNW,293,3.0,3.0,33,0.00,,,0.00,Wunderground v.1.15,2013-02-18 19:20:00,
2013-02-18 14:25:00,21.3,-3.4,30.34,NNE,16,4.0,8.0,33,0.00,,,0.00,Wunderground v.1.15,2013-02-18 19:25:00,
2013-02-18 14:30:00,21.2,-2.9,30.34,WNW,301,5.0,5.0,34,0.00,,,0.00,Wunderground v.1.15,2013-02-18 19:30:00,
2013-02-18 14:36:00,21.4,-3.9,30.34,WNW,285,4.0,5.0,32,0.00,,,0.00,Wunderground v.1.15,2013-02-18 19:36:00,
2013-02-18 14:41:00,21.7,-3.7,30.34,NW,305,3.0,3.0,32,0.00,,,0.00,Wunderground v.1.15,2013-02-18 19:41:00,
2013-02-18 14:46:00,21.5,-3.9,30.35,SSE,158,3.0,5.0,32,0.00,,,0.00,Wunderground v.1.15,2013-02-18 19:46:00,
2013-02-18 14:51:00,21.5,-3.9,30.35,West,265,4.0,4.0,32,0.00,,,0.00,Wunderground v.1.15,2013-02-18 19:51:00,
2013-02-18 14:57:00,21.7,-3.7,30.35,East,85,3.0,6.0,32,0.00,,,0.00,Wunderground v.1.15,2013-02-18 19:57:00,
2013-02-18 15:02:00,21.7,-5.7,30.35,NE,53,3.0,20.0,29,0.00,,,0.00,Wunderground v.1.15,2013-02-18 20:02:00,
2013-02-18 15:07:00,21.5,-4.5,30.35,NE,48,4.0,20.0,31,0.00,,,0.00,Wunderground v.1.15,2013-02-18 20:07:00,
2013-02-18 15:12:00,22.1,-4.7,30.35,SSW,207,3.0,3.0,30,0.00,,,0.00,Wunderground v.1.15,2013-02-18 20:12:00,
2013-02-18 15:18:00,21.9,-4.9,30.35,WNW,297,3.0,9.0,30,0.00,,,0.00,Wunderground v.1.15,2013-02-18 20:18:00,
2013-02-18 15:23:00,21.8,-5.6,30.36,North,360,3.0,8.0,29,0.00,,,0.00,Wunderground v.1.15,2013-02-18 20:23:00,
2013-02-18 15:29:00,21.8,-4.9,30.36,West,263,2.0,8.0,30,0.00,,,0.00,Wunderground v.1.15,2013-02-18 20:29:00,
2013-02-18 15:34:00,21.8,-3.6,30.36,SW,226,2.0,5.0,32,0.00,,,0.00,Wunderground v.1.15,2013-02-18 20:34:00,
2013-02-18 15:40:00,22.0,-4.1,30.36,SW,225,2.0,2.0,31,0.00,,,0.00,Wunderground v.1.15,2013-02-18 20:40:00,
2013-02-18 15:45:00,22.1,-4.7,30.36,NE,56,2.0,3.0,30,0.00,,,0.00,Wunderground v.1.15,2013-02-18 20:45:00,
2013-02-18 15:50:00,21.6,-5.1,30.37,SE,142,2.0,2.0,30,0.00,,,0.00,Wunderground v.1.15,2013-02-18 20:50:00,
2013-02-18 15:56:00,21.5,-4.5,30.38,NW,307,3.0,4.0,31,0.00,,,0.00,Wunderground v.1.15,2013-02-18 20:56:00,
2013-02-18 16:01:00,21.4,-6.0,30.38,SSW,203,2.0,15.0,29,0.00,,,0.00,Wunderground v.1.15,2013-02-18 21:01:00,
2013-02-18 16:07:00,20.8,-5.8,30.38,West,268,2.0,15.0,30,0.00,,,0.00,Wunderground v.1.15,2013-02-18 21:07:00,
2013-02-18 16:12:00,20.0,-5.8,30.39,NNW,331,3.0,4.0,31,0.00,,,0.00,Wunderground v.1.15,2013-02-18 21:12:00,
2013-02-18 16:18:00,19.4,-6.4,30.39,NE,54,3.0,4.0,31,0.00,,,0.00,Wunderground v.1.15,2013-02-18 21:18:00,
2013-02-18 16:23:00,19.1,-6.0,30.39,ENE,62,2.0,2.0,32,0.00,,,0.00,Wunderground v.1.15,2013-02-18 21:23:00,
2013-02-18 16:29:00,18.9,-6.2,30.39,SE,146,1.0,2.0,32,0.00,,,0.00,Wunderground v.1.15,2013-02-18 21:29:00,
2013-02-18 16:34:00,18.7,-5.7,30.39,WNW,289,1.0,1.0,33,0.00,,,0.00,Wunderground v.1.15,2013-02-18 21:34:00,
2013-02-18 16:39:00,18.5,-7.2,30.40,WSW,255,1.0,4.0,31,0.00,,,0.00,Wunderground v.1.15,2013-02-18 21:39:00,
2013-02-18 16:44:00,18.2,-6.1,30.40,NNE,32,2.0,3.0,33,0.00,,,0.00,Wunderground v.1.15,2013-02-18 21:44:00,
2013-02-18 16:49:00,18.0,-7.0,30.40,NW,325,2.0,3.0,32,0.00,,,0.00,Wunderground v.1.15,2013-02-18 21:49:00,
2013-02-18 16:54:00,17.8,-6.5,30.40,NNE,23,1.0,6.0,33,0.00,,,0.00,Wunderground v.1.15,2013-02-18 21:54:00,
2013-02-18 16:59:00,17.6,-6.1,30.41,North,354,2.0,6.0,34,0.00,,,0.00,Wunderground v.1.15,2013-02-18 21:59:00,
2013-02-18 17:05:00,17.2,-4.1,30.41,NW,305,1.0,12.0,38,0.00,,,0.00,Wunderground v.1.15,2013-02-18 22:05:00,
2013-02-18 17:10:00,17.0,-6.0,30.41,West,259,1.0,1.0,35,0.00,,,0.00,Wunderground v.1.15,2013-02-18 22:10:00,
2013-02-18 17:15:00,16.9,-4.9,30.41,NW,307,1.0,1.0,37,0.00,,,0.00,Wunderground v.1.15,2013-02-18 22:15:00,
2013-02-18 17:21:00,16.4,-4.8,30.41,NNW,334,0.0,0.0,38,0.00,,,0.00,Wunderground v.1.15,2013-02-18 22:21:00,
2013-02-18 17:26:00,16.1,-5.1,30.41,NW,321,1.0,2.0,38,0.00,,,0.00,Wunderground v.1.15,2013-02-18 22:26:00,
2013-02-18 17:32:00,15.6,-4.0,30.41,NW,305,1.0,2.0,41,0.00,,,0.00,Wunderground v.1.15,2013-02-18 22:32:00,
2013-02-18 17:38:00,15.1,-3.9,30.42,North,352,0.0,2.0,42,0.00,,,0.00,Wunderground v.1.15,2013-02-18 22:38:00,
2013-02-18 17:43:00,15.2,-5.4,30.42,NNE,32,1.0,2.0,39,0.00,,,0.00,Wunderground v.1.15,2013-02-18 22:43:00,
2013-02-18 17:49:00,15.1,-6.0,30.42,East,91,1.0,2.0,38,0.00,,,0.00,Wunderground v.1.15,2013-02-18 22:49:00,
2013-02-18 17:54:00,15.2,-5.9,30.42,ENE,65,1.0,1.0,38,0.00,,,0.00,Wunderground v.1.15,2013-02-18 22:54:00,
2013-02-18 17:59:00,15.1,-6.5,30.43,NE,34,0.0,1.0,37,0.00,,,0.00,Wunderground v.1.15,2013-02-18 22:59:00,
2013-02-18 18:05:00,14.4,-5.6,30.43,NNE,19,0.0,10.0,40,0.00,,,0.00,Wunderground v.1.15,2013-02-18 23:05:00,
2013-02-18 18:10:00,14.5,-6.5,30.43,NW,322,0.0,0.0,38,0.00,,,0.00,Wunderground v.1.15,2013-02-18 23:10:00,
2013-02-18 18:16:00,14.8,-6.3,30.43,NE,50,1.0,2.0,38,0.00,,,0.00,Wunderground v.1.15,2013-02-18 23:16:00,
2013-02-18 18:21:00,14.8,-6.3,30.43,North,356,1.0,2.0,38,0.00,,,0.00,Wunderground v.1.15,2013-02-18 23:21:00,
2013-02-18 18:27:00,14.6,-6.4,30.43,West,277,1.0,2.0,38,0.00,,,0.00,Wunderground v.1.15,2013-02-18 23:27:00,
2013-02-18 18:32:00,14.4,-6.6,30.44,SW,221,1.0,1.0,38,0.00,,,0.00,Wunderground v.1.15,2013-02-18 23:32:00,
2013-02-18 18:38:00,14.1,-6.9,30.44,NW,305,1.0,2.0,38,0.00,,,0.00,Wunderground v.1.15,2013-02-18 23:38:00,
2013-02-18 18:43:00,14.0,-6.5,30.44,North,1,0.0,1.0,39,0.00,,,0.00,Wunderground v.1.15,2013-02-18 23:43:00,
2013-02-18 18:49:00,14.1,-6.4,30.45,West,280,1.0,4.0,39,0.00,,,0.00,Wunderground v.1.15,2013-02-18 23:49:00,
2013-02-18 18:55:00,13.4,-6.5,30.45,NW,311,1.0,1.0,40,0.00,,,0.00,Wunderground v.1.15,2013-02-18 23:55:00,
2013-02-18 19:00:00,12.8,-7.0,30.45,NW,319,0.0,0.0,40,0.00,,,0.00,Wunderground v.1.15,2013-02-19 00:00:00,
2013-02-18 19:06:00,12.4,-5.9,30.45,WSW,252,0.0,5.0,43,0.00,,,0.00,Wunderground v.1.15,2013-02-19 00:06:00,
2013-02-18 19:11:00,12.3,-7.0,30.45,NNE,15,0.0,0.0,41,0.00,,,0.00,Wunderground v.1.15,2013-02-19 00:11:00,
2013-02-18 19:16:00,12.6,-6.2,30.45,NE,56,0.0,2.0,42,0.00,,,0.00,Wunderground v.1.15,2013-02-19 00:16:00,
2013-02-18 19:21:00,12.6,-6.2,30.45,NE,55,0.0,0.0,42,0.00,,,0.00,Wunderground v.1.15,2013-02-19 00:21:00,
2013-02-18 19:27:00,12.2,-6.6,30.45,ENE,64,0.0,0.0,42,0.00,,,0.00,Wunderground v.1.15,2013-02-19 00:27:00,
2013-02-18 19:32:00,11.8,-5.5,30.46,ENE,64,0.0,0.0,45,0.00,,,0.00,Wunderground v.1.15,2013-02-19 00:32:00,
2013-02-18 19:38:00,11.0,-5.8,30.46,ENE,63,0.0,0.0,46,0.00,,,0.00,Wunderground v.1.15,2013-02-19 00:38:00,
2013-02-18 19:43:00,10.4,-5.9,30.46,ENE,64,0.0,0.0,47,0.00,,,0.00,Wunderground v.1.15,2013-02-19 00:43:00,
2013-02-18 19:48:00,10.5,-6.7,30.46,NNE,20,0.0,1.0,45,0.00,,,0.00,Wunderground v.1.15,2013-02-19 00:48:00,
2013-02-18 19:53:00,11.0,-6.2,30.46,North,358,0.0,0.0,45,0.00,,,0.00,Wunderground v.1.15,2013-02-19 00:53:00,
2013-02-18 19:59:00,10.7,-5.6,30.46,NW,314,0.0,0.0,47,0.00,,,0.00,Wunderground v.1.15,2013-02-19 00:59:00,
2013-02-18 20:04:00,10.4,-1.1,30.46,WNW,302,0.0,5.0,59,0.00,,,0.00,Wunderground v.1.15,2013-02-19 01:04:00,
2013-02-18 20:09:00,9.6,-3.7,30.46,WNW,302,0.0,5.0,54,0.00,,,0.00,Wunderground v.1.15,2013-02-19 01:09:00,
2013-02-18 20:14:00,9.2,-1.9,30.46,WNW,291,0.0,1.0,60,0.00,,,0.00,Wunderground v.1.15,2013-02-19 01:14:00,
2013-02-18 20:20:00,9.3,-4.4,30.46,West,267,0.0,1.0,53,0.00,,,0.00,Wunderground v.1.15,2013-02-19 01:20:00,
2013-02-18 20:25:00,9.0,-2.8,30.46,West,270,0.0,1.0,58,0.00,,,0.00,Wunderground v.1.15,2013-02-19 01:25:00,
2013-02-18 20:31:00,8.6,-3.9,30.46,West,280,0.0,1.0,56,0.00,,,0.00,Wunderground v.1.15,2013-02-19 01:31:00,
2013-02-18 20:36:00,8.7,-4.6,30.46,WNW,283,1.0,1.0,54,0.00,,,0.00,Wunderground v.1.15,2013-02-19 01:36:00,
2013-02-18 20:41:00,8.5,-4.0,30.47,WSW,257,0.0,1.0,56,0.00,,,0.00,Wunderground v.1.15,2013-02-19 01:41:00,
2013-02-18 20:47:00,8.3,-3.8,30.47,SSE,163,0.0,1.0,57,0.00,,,0.00,Wunderground v.1.15,2013-02-19 01:47:00,
2013-02-18 20:52:00,7.4,-4.0,30.47,East,94,0.0,1.0,59,0.00,,,0.00,Wunderground v.1.15,2013-02-19 01:52:00,
2013-02-18 20:58:00,6.7,-4.3,30.47,East,94,0.0,1.0,60,0.00,,,0.00,Wunderground v.1.15,2013-02-19 01:58:00,
2013-02-18 21:03:00,6.5,-4.8,30.46,East,94,0.0,2.0,59,0.00,,,0.00,Wunderground v.1.15,2013-02-19 02:03:00,
2013-02-18 21:09:00,6.2,-4.7,30.46,East,94,0.0,2.0,60,0.00,,,0.00,Wunderground v.1.15,2013-02-19 02:09:00,
2013-02-18 21:14:00,5.8,-5.1,30.46,East,94,0.0,0.0,60,0.00,,,0.00,Wunderground v.1.15,2013-02-19 02:14:00,
2013-02-18 21:19:00,6.0,-3.9,30.46,WNW,287,0.0,1.0,63,0.00,,,0.00,Wunderground v.1.15,2013-02-19 02:19:00,
2013-02-18 21:24:00,5.5,-3.7,30.47,West,276,0.0,1.0,65,0.00,,,0.00,Wunderground v.1.15,2013-02-19 02:24:00,
2013-02-18 21:30:00,5.4,-4.5,30.46,NE,53,1.0,1.0,63,0.00,,,0.00,Wunderground v.1.15,2013-02-19 02:30:00,
2013-02-18 21:36:00,5.1,-4.4,30.46,NE,53,0.0,1.0,64,0.00,,,0.00,Wunderground v.1.15,2013-02-19 02:36:00,
2013-02-18 21:41:00,5.0,-4.5,30.47,NE,53,0.0,0.0,64,0.00,,,0.00,Wunderground v.1.15,2013-02-19 02:41:00,
2013-02-18 21:46:00,4.7,-4.5,30.47,NE,53,0.0,0.0,65,0.00,,,0.00,Wunderground v.1.15,2013-02-19 02:46:00,
2013-02-18 21:52:00,4.6,-4.3,30.47,NE,53,0.0,0.0,66,0.00,,,0.00,Wunderground v.1.15,2013-02-19 02:52:00,
2013-02-18 21:57:00,4.6,-3.6,30.47,West,271,0.0,0.0,68,0.00,,,0.00,Wunderground v.1.15,2013-02-19 02:57:00,
2013-02-18 22:02:00,4.4,-3.8,30.47,West,271,0.0,2.0,68,0.00,,,0.00,Wunderground v.1.15,2013-02-19 03:02:00,
2013-02-18 22:08:00,4.6,-3.6,30.47,WNW,285,0.0,2.0,68,0.00,,,0.00,Wunderground v.1.15,2013-02-19 03:08:00,
2013-02-18 22:13:00,5.0,-3.6,30.47,West,266,1.0,1.0,67,0.00,,,0.00,Wunderground v.1.15,2013-02-19 03:13:00,
2013-02-18 22:18:00,4.8,-5.1,30.46,West,278,1.0,1.0,63,0.00,,,0.00,Wunderground v.1.15,2013-02-19 03:18:00,
2013-02-18 22:24:00,5.3,-4.9,30.47,West,277,1.0,1.0,62,0.00,,,0.00,Wunderground v.1.15,2013-02-19 03:24:00,
2013-02-18 22:30:00,5.2,-5.0,30.47,West,270,1.0,1.0,62,0.00,,,0.00,Wunderground v.1.15,2013-02-19 03:30:00,
2013-02-18 22:36:00,5.0,-4.9,30.46,WNW,288,1.0,1.0,63,0.00,,,0.00,Wunderground v.1.15,2013-02-19 03:36:00,
2013-02-18 22:41:00,5.1,-5.1,30.46,WNW,293,1.0,1.0,62,0.00,,,0.00,Wunderground v.1.15,2013-02-19 03:41:00,
2013-02-18 22:47:00,4.8,-5.1,30.46,North,356,0.0,2.0,63,0.00,,,0.00,Wunderground v.1.15,2013-02-19 03:47:00,
2013-02-18 22:53:00,4.8,-5.7,30.46,West,281,0.0,0.0,61,0.00,,,0.00,Wunderground v.1.15,2013-02-19 03:53:00,
2013-02-18 22:59:00,4.9,-5.3,30.47,WNW,283,0.0,0.0,62,0.00,,,0.00,Wunderground v.1.15,2013-02-19 03:59:00,
2013-02-18 23:05:00,4.4,-5.8,30.46,WNW,283,0.0,2.0,62,0.00,,,0.00,Wunderground v.1.15,2013-02-19 04:05:00,
2013-02-18 23:10:00,4.4,-5.8,30.46,WNW,282,0.0,0.0,62,0.00,,,0.00,Wunderground v.1.15,2013-02-19 04:10:00,
2013-02-18 23:15:00,3.7,-4.5,30.46,WNW,282,0.0,0.0,68,0.00,,,0.00,Wunderground v.1.15,2013-02-19 04:15:00,
2013-02-18 23:20:00,3.0,-4.9,30.46,West,272,0.0,1.0,69,0.00,,,0.00,Wunderground v.1.15,2013-02-19 04:20:00,
2013-02-18 23:26:00,2.6,-5.6,30.46,WSW,253,0.0,1.0,68,0.00,,,0.00,Wunderground v.1.15,2013-02-19 04:26:00,
2013-02-18 23:31:00,2.4,-5.8,30.46,West,270,0.0,0.0,68,0.00,,,0.00,Wunderground v.1.15,2013-02-19 04:31:00,
2013-02-18 23:37:00,2.4,-5.8,30.45,NNW,328,0.0,0.0,68,0.00,,,0.00,Wunderground v.1.15,2013-02-19 04:37:00,
2013-02-18 23:43:00,2.8,-5.4,30.45,West,267,0.0,0.0,68,0.00,,,0.00,Wunderground v.1.15,2013-02-19 04:43:00,
2013-02-18 23:49:00,2.5,-5.4,30.45,West,269,0.0,1.0,69,0.00,,,0.00,Wunderground v.1.15,2013-02-19 04:49:00,
2013-02-18 23:54:00,2.5,-5.7,30.46,West,276,1.0,2.0,68,0.00,,,0.00,Wunderground v.1.15,2013-02-19 04:54:00,
2013-02-18 23:59:00,2.4,-6.1,30.46,NW,319,1.0,2.0,67,0.00,,,0.00,Wunderground v.1.15,2013-02-19 04:59:00,